[[{"header":{"parameterUnit":"m.s-1","parameterCategory":1,"la1":30.2991,"la2":30.254,"lo1":-89.0895,"lo2":-89.0444,"dy":0.0017,"dx":0.0017,"nx":28,"ny":28,"refTime":"2023-10-29T21:00:00:Z","depth":0,"parameterNumber":2,"parameterNumberName":"U-component_of_WINDS"},"data":[0,0,0,0,0,0,0,0,0,0,0,0,0,0,0,0,0,0,0,0,0,0,0,0,0,0,0,0,0,0,0,0,0,0,0,0,0,0,0,0,0,0,0,0,0,0,0,0,0,0,0,0,0,0,0,0,0,0,-0.4332,-0.4332,0,-0.4344,-0.4344,-0.4344,-0.4334,-0.4333,-0.4333,-0.4332,-0.4345,-0.4346,-0.4347,0,0,0,0,0,0,0,0,0,0,0,0,0,-0.4302,-0.4302,-0.4332,-0.4332,-0.4333,-0.4344,-0.4344,-0.4344,-0.4334,-0.4333,-0.4333,-0.4332,-0.4345,-0.4346,-0.4347,0,0,0,0,0,0,0,0,0,0,0,0,0,-0.4314,-0.4303,-0.4332,-0.4329,-0.4328,-0.4344,-0.4344,-0.4344,-0.4334,-0.4333,-0.4332,-0.4332,-0.4345,-0.4346,-0.4347,-0.4367,0,0,-0.435,-0.4351,0,0,0,0,0,0,0,0,-0.4314,-0.4316,-0.4329,-0.4329,-0.4329,-0.4337,-0.4338,-0.4352,-0.4334,-0.4332,-0.4332,-0.4332,-0.4343,-0.4344,-0.4348,-0.4368,-0.4368,-0.435,-0.4351,-0.4352,-0.4352,0,0,0,0,0,0,0,-0.4313,-0.4315,-0.4337,-0.4329,-0.4329,-0.4327,-0.4328,-0.4341,-0.4341,-0.4332,-0.4331,-0.4333,-0.4343,-0.4347,-0.4348,-0.4368,-0.435,-0.4351,-0.4352,-0.4353,-0.4405,-0.4406,0,0,0,0,0,0,-0.4312,-0.4314,-0.4337,-0.4337,-0.4319,-0.4328,-0.4329,-0.4335,-0.4341,-0.4341,-0.4333,-0.4332,-0.4345,-0.4347,-0.4349,-0.4372,-0.4352,-0.4353,-0.4353,-0.4405,-0.4405,-0.4406,0,0,0,0,0,0,-0.4312,-0.4314,-0.4336,-0.4326,-0.4328,-0.4329,-0.4336,-0.4335,-0.4339,-0.4342,-0.4342,-0.4337,-0.4345,-0.4347,-0.4362,-0.4373,-0.4353,-0.4354,-0.4404,-0.4405,-0.4406,-0.442,0,0,0,0,0,0,-0.4311,-0.4314,-0.4322,-0.4326,-0.4329,-0.435,-0.4336,-0.4336,-0.4341,-0.434,-0.4346,-0.4346,-0.4344,-0.4361,-0.4364,-0.4374,-0.4355,-0.4403,-0.4404,-0.4405,-0.4419,-0.4422,-0.4424,0,0,0,0,0,-0.431,-0.4325,-0.4322,-0.4325,-0.4338,-0.435,-0.4352,-0.435,-0.4342,-0.435,-0.4351,-0.4346,-0.4371,-0.4363,-0.4366,-0.4376,-0.4402,-0.4404,-0.4405,-0.4418,-0.4421,-0.4424,0,0,0,0,0,0,-0.4323,-0.4326,-0.4322,-0.434,-0.4345,-0.4348,-0.4358,-0.4353,-0.4361,-0.436,-0.4357,-0.4358,-0.4375,-0.4377,-0.4367,-0.4396,-0.4385,-0.4388,-0.4394,-0.4397,-0.44,-0.4399,-0.4356,0,0,0,0,0,-0.4328,-0.4337,-0.4339,-0.4354,-0.4357,-0.4357,-0.4362,-0.436,-0.4365,-0.4368,-0.437,-0.4376,-0.4385,-0.4391,-0.44,-0.4419,-0.442,-0.4428,-0.4431,-0.4433,-0.4435,-0.4445,-0.4449,-0.4412,-0.4412,-0.4411,0,0,-0.4338,-0.4341,-0.4347,-0.4357,-0.4361,-0.4371,-0.4359,-0.437,-0.4377,-0.4369,-0.4384,-0.4386,-0.4392,-0.441,-0.4418,-0.4412,-0.4446,-0.4435,-0.4437,-0.4438,-0.4447,-0.4451,-0.4454,-0.4413,-0.4412,-0.4412,0,0,-0.4361,-0.4364,-0.4377,-0.4381,-0.4387,-0.4387,-0.439,-0.4394,-0.4395,-0.441,-0.4404,-0.4413,-0.4429,-0.4433,-0.4438,-0.4463,-0.4458,-0.4466,-0.448,-0.449,-0.4493,-0.4496,-0.4505,-0.4508,-0.4468,-0.4468,-0.4468,0,-0.4373,-0.4388,-0.4385,-0.4396,-0.4401,-0.4394,-0.4407,-0.4411,-0.4419,-0.4423,-0.4417,-0.4437,-0.444,-0.4459,-0.4465,-0.4469,-0.4472,-0.4465,-0.4493,-0.4495,-0.4498,-0.4506,-0.451,-0.4469,-0.4469,-0.4469,-0.4469,0,-0.4402,-0.4412,-0.4422,-0.443,-0.4436,-0.4448,-0.4447,-0.4454,-0.4451,-0.4452,-0.4467,-0.4471,-0.448,-0.4484,-0.4482,-0.4503,-0.4499,-0.4493,-0.4482,-0.4502,-0.451,-0.4513,-0.447,-0.447,-0.447,-0.447,0,0,-0.4434,-0.444,-0.4444,-0.4447,-0.4453,-0.4461,-0.4473,-0.4481,-0.4487,-0.4493,-0.4503,-0.4517,-0.4511,-0.4516,-0.4514,-0.4523,-0.4543,-0.4516,-0.4516,-0.4521,-0.4566,-0.457,-0.4574,-0.454,-0.4541,-0.4541,-0.4565,0,-0.4458,-0.4478,-0.4476,-0.4496,-0.4505,-0.4498,-0.4509,-0.4514,-0.4515,-0.4523,-0.4524,-0.4534,-0.4526,-0.4529,-0.4537,-0.4539,-0.4552,-0.4537,-0.455,-0.455,-0.4548,-0.4578,-0.4583,-0.4606,-0.4568,-0.4569,-0.4569,0,-0.4488,-0.4495,-0.4515,-0.4519,-0.4523,-0.4533,-0.454,-0.4548,-0.4554,-0.4554,-0.456,-0.4556,-0.4569,-0.4558,-0.4575,-0.4565,-0.457,-0.4571,-0.4572,-0.4573,-0.4561,-0.458,-0.4613,-0.4616,-0.4574,-0.4574,-0.4574,0,-0.451,-0.4524,-0.4538,-0.4541,-0.4546,-0.4553,-0.4555,-0.456,-0.4565,-0.4572,-0.4576,-0.4584,-0.4589,-0.4596,-0.4595,-0.4587,-0.4612,-0.4601,-0.4613,-0.4613,-0.4619,-0.4618,-0.4653,-0.4622,-0.4622,-0.4622,-0.4622,0,-0.4536,-0.4549,-0.4547,-0.4556,-0.457,-0.4567,-0.4582,-0.4583,-0.4588,-0.4597,-0.4592,-0.46,-0.4599,-0.4608,-0.4607,-0.4621,-0.4624,-0.4624,-0.4624,-0.4624,-0.4624,-0.4628,-0.4626,-0.4623,-0.4623,-0.4622,-0.4622,0,-0.4562,-0.4562,-0.4576,-0.458,-0.4581,-0.4591,-0.4594,-0.4603,-0.4603,-0.4615,-0.4617,-0.4618,-0.4628,-0.4628,-0.464,-0.464,-0.4657,-0.4655,-0.4655,-0.4655,-0.4666,-0.4665,-0.4704,-0.4709,-0.4675,-0.4675,-0.4676,0,-0.4579,-0.4589,-0.4593,-0.4599,-0.4602,-0.4611,-0.4616,-0.4614,-0.462,-0.4626,-0.4634,-0.4643,-0.4651,-0.4668,-0.4669,-0.4678,-0.4676,-0.4689,-0.4678,-0.4678,-0.4677,-0.4676,-0.4677,-0.4692,-0.4692,-0.4692,-0.4693,0,-0.461,-0.4609,-0.4616,-0.4624,-0.463,-0.4636,-0.4642,-0.4647,-0.4645,-0.4652,-0.4662,-0.4668,-0.468,-0.4689,-0.4698,-0.4701,-0.4697,-0.4696,-0.4699,-0.47,-0.47,-0.47,-0.4661,-0.4695,-0.4695,-0.4695,-0.4695,-0.4695,-0.4632,-0.464,-0.4644,-0.4653,-0.4657,-0.4662,-0.467,-0.4671,-0.4679,-0.4688,-0.4686,-0.4698,-0.4703,-0.4714,-0.4718,-0.4727,-0.4722,-0.4727,-0.4728,-0.4729,-0.473,-0.4698,-0.4728,-0.4728,-0.4728,-0.4728,-0.4728,0,-0.4662,-0.4664,-0.4672,-0.4679,-0.4686,-0.4681,-0.4687,-0.4693,-0.4703,-0.4708,-0.4716,-0.4727,-0.4736,-0.4739,-0.4748,-0.4755,-0.4753,-0.4757,-0.4757,-0.4757,-0.4734,-0.473,-0.4758,-0.4758,-0.4758,-0.4758,-0.4758,-0.4758,-0.4678,-0.4691,-0.4691,-0.4706,-0.4709,-0.4719,-0.4723,-0.4728,-0.4732,-0.4745,-0.4752,-0.4754,-0.4758,-0.4767,-0.4776,-0.4776,-0.478,-0.4785,-0.4784,-0.4762,-0.4759,-0.4756,-0.4753,-0.4785,-0.4785,-0.4807,-0.4808,-0.4808]},{"header":{"parameterUnit":"m.s-1","parameterCategory":1,"la1":30.2991,"la2":30.254,"lo1":-89.0895,"lo2":-89.0444,"dy":0.0017,"dx":0.0017,"nx":28,"ny":28,"refTime":"2023-10-29T21:00:00:Z","depth":0,"parameterNumber":3,"parameterNumberName":"V-component_of_WINDS"},"data":[0,0,0,0,0,0,0,0,0,0,0,0,0,0,0,0,0,0,0,0,0,0,0,0,0,0,0,0,0,0,0,0,0,0,0,0,0,0,0,0,0,0,0,0,0,0,0,0,0,0,0,0,0,0,0,0,0,0,0.6404,0.6404,0,0.6402,0.6402,0.6402,0.64,0.64,0.64,0.6399,0.6397,0.6397,0.6397,0,0,0,0,0,0,0,0,0,0,0,0,0,0.6405,0.6405,0.6404,0.6404,0.6404,0.6402,0.6402,0.6402,0.64,0.64,0.6399,0.6399,0.6397,0.6397,0.6397,0,0,0,0,0,0,0,0,0,0,0,0,0,0.6404,0.6405,0.6404,0.6403,0.6402,0.6402,0.6402,0.6402,0.64,0.64,0.6399,0.6399,0.6397,0.6397,0.6397,0.6399,0,0,0.6397,0.6397,0,0,0,0,0,0,0,0,0.6404,0.6404,0.6403,0.6403,0.6403,0.6401,0.6402,0.6401,0.64,0.6401,0.6399,0.6399,0.6399,0.6399,0.6398,0.6399,0.6399,0.6397,0.6397,0.6397,0.6397,0,0,0,0,0,0,0,0.6404,0.6404,0.6404,0.6403,0.6403,0.6402,0.6402,0.6402,0.64,0.6401,0.64,0.64,0.6399,0.6398,0.6398,0.6399,0.6397,0.6397,0.6397,0.6397,0.64,0.64,0,0,0,0,0,0,0.6405,0.6404,0.6404,0.6403,0.6403,0.6402,0.6402,0.6402,0.64,0.64,0.64,0.64,0.6398,0.6398,0.6398,0.64,0.6397,0.6397,0.6397,0.64,0.64,0.64,0,0,0,0,0,0,0.6405,0.6405,0.6404,0.6404,0.6404,0.6402,0.6402,0.6402,0.6402,0.64,0.64,0.64,0.6398,0.6398,0.6399,0.64,0.6397,0.6397,0.64,0.64,0.64,0.6403,0,0,0,0,0,0,0.6405,0.6405,0.6405,0.6404,0.6404,0.6404,0.6402,0.6402,0.6402,0.6401,0.64,0.64,0.6398,0.6399,0.6399,0.64,0.6397,0.64,0.64,0.64,0.6403,0.6403,0.6404,0,0,0,0,0,0.6405,0.6406,0.6405,0.6405,0.6404,0.6404,0.6404,0.6403,0.6402,0.6402,0.6401,0.64,0.64,0.6399,0.6399,0.64,0.64,0.64,0.64,0.6403,0.6403,0.6404,0,0,0,0,0,0,0.6407,0.6406,0.6405,0.6406,0.6405,0.6404,0.6404,0.6403,0.6403,0.6403,0.6401,0.6401,0.6401,0.6401,0.64,0.6401,0.64,0.64,0.6402,0.6402,0.6402,0.6403,0.6397,0,0,0,0,0,0.6408,0.6408,0.6407,0.6408,0.6408,0.6406,0.6406,0.6405,0.6404,0.6404,0.6403,0.6402,0.6402,0.6402,0.6402,0.6403,0.6403,0.6404,0.6404,0.6404,0.6405,0.6405,0.6406,0.6401,0.6401,0.6401,0,0,0.6409,0.6409,0.6409,0.6408,0.6408,0.6408,0.6406,0.6406,0.6406,0.6404,0.6404,0.6404,0.6403,0.6404,0.6404,0.6403,0.6406,0.6405,0.6405,0.6405,0.6405,0.6406,0.6406,0.6401,0.6401,0.6401,0,0,0.6412,0.6412,0.6412,0.6412,0.6411,0.641,0.641,0.6409,0.6409,0.6409,0.6407,0.6407,0.6407,0.6407,0.6406,0.6409,0.6408,0.6409,0.6411,0.6412,0.6412,0.6413,0.6414,0.6414,0.6409,0.6409,0.6409,0,0.6414,0.6414,0.6413,0.6413,0.6413,0.6411,0.6412,0.6412,0.6411,0.6411,0.641,0.6409,0.6409,0.641,0.641,0.641,0.641,0.6409,0.6412,0.6413,0.6413,0.6414,0.6414,0.6409,0.6409,0.6409,0.6409,0,0.6417,0.6417,0.6418,0.6417,0.6417,0.6418,0.6416,0.6416,0.6415,0.6414,0.6415,0.6414,0.6414,0.6414,0.6413,0.6414,0.6414,0.6413,0.6411,0.6414,0.6414,0.6415,0.641,0.641,0.641,0.641,0,0,0.6421,0.642,0.642,0.642,0.6419,0.6419,0.6419,0.6419,0.6419,0.6419,0.6419,0.6419,0.6418,0.6418,0.6417,0.6417,0.642,0.6416,0.6416,0.6417,0.6422,0.6422,0.6423,0.6419,0.6419,0.6419,0.6422,0,0.6423,0.6424,0.6423,0.6424,0.6425,0.6423,0.6423,0.6423,0.6422,0.6422,0.6421,0.6421,0.642,0.642,0.642,0.6419,0.6421,0.6419,0.6419,0.6419,0.6419,0.6423,0.6424,0.6427,0.6422,0.6422,0.6422,0,0.6426,0.6426,0.6428,0.6427,0.6427,0.6427,0.6427,0.6427,0.6426,0.6426,0.6426,0.6424,0.6425,0.6423,0.6424,0.6423,0.6423,0.6422,0.6423,0.6423,0.6421,0.6423,0.6428,0.6428,0.6423,0.6422,0.6422,0,0.643,0.643,0.643,0.643,0.6429,0.643,0.6429,0.6429,0.6429,0.6428,0.6428,0.6428,0.6428,0.6428,0.6427,0.6425,0.6427,0.6426,0.6427,0.6427,0.6427,0.6427,0.6432,0.6427,0.6427,0.6427,0.6427,0,0.6433,0.6433,0.6432,0.6432,0.6433,0.6432,0.6433,0.6432,0.6432,0.6432,0.643,0.6431,0.6429,0.6429,0.6428,0.6429,0.6429,0.6428,0.6428,0.6429,0.6429,0.6429,0.6428,0.6427,0.6427,0.6427,0.6427,0,0.6436,0.6435,0.6436,0.6435,0.6435,0.6435,0.6435,0.6435,0.6434,0.6435,0.6435,0.6433,0.6434,0.6432,0.6432,0.6431,0.6433,0.6432,0.6433,0.6433,0.6434,0.6434,0.6439,0.6439,0.6434,0.6434,0.6434,0,0.6438,0.6439,0.6438,0.6438,0.6438,0.6438,0.6438,0.6437,0.6437,0.6436,0.6437,0.6437,0.6437,0.6437,0.6436,0.6436,0.6435,0.6437,0.6435,0.6436,0.6435,0.6435,0.6436,0.6437,0.6437,0.6437,0.6437,0,0.6442,0.6441,0.6441,0.6441,0.6441,0.6441,0.6441,0.6441,0.644,0.644,0.644,0.644,0.644,0.644,0.644,0.644,0.6438,0.6438,0.6438,0.6439,0.6439,0.6439,0.6434,0.6438,0.6438,0.6438,0.6438,0.6438,0.6445,0.6445,0.6445,0.6445,0.6445,0.6445,0.6445,0.6444,0.6444,0.6444,0.6444,0.6444,0.6443,0.6443,0.6443,0.6443,0.6442,0.6442,0.6443,0.6443,0.6443,0.6439,0.6443,0.6443,0.6443,0.6443,0.6443,0,0.6448,0.6448,0.6448,0.6448,0.6448,0.6447,0.6447,0.6447,0.6447,0.6447,0.6447,0.6447,0.6448,0.6447,0.6447,0.6447,0.6446,0.6447,0.6447,0.6447,0.6444,0.6443,0.6448,0.6448,0.6448,0.6448,0.6448,0.6448,0.645,0.6451,0.6451,0.6451,0.6451,0.6451,0.6451,0.6451,0.6451,0.6451,0.6452,0.6451,0.645,0.645,0.645,0.645,0.645,0.6451,0.6451,0.6448,0.6447,0.6447,0.6447,0.6451,0.6451,0.6454,0.6454,0.6454]}]]